Regional Weather Roundup
Issued by NWS

Home | Current Version | Previous Version | Text Only | Print | Product List | Glossary Off
Versions: 1 2 3 4 5 6 7 8 9 10 11 12 13 14 15 16 17 18 19 20 21 22 23 24 25 26 27 28 29 30 31 32 33 34 35 36 37 38 39 40 41 42 43 44 45 46 47 48 49 50

000
ASUS43 KMPX 160601
RWRMN
WEATHER ROUNDUP FOR MINNESOTA
NATIONAL WEATHER SERVICE TWIN CITIES/CHANHASSEN MN
100 AM CDT WED AUG 16 2017


NOTE: "FAIR" INDICATES FEW OR NO CLOUDS BELOW 12,000 FEET WITH NO
SIGNIFICANT WEATHER AND/OR OBSTRUCTIONS TO VISIBILITY. N/A MEANS
CURRENT SKY AND/OR WEATHER CONDITIONS ARE NOT AVAILABLE.

MNZ060>063-068>070-160700-
   Twin Cities Metro

CITY           SKY/WX    TMP DP  RH WIND       PRES   REMARKS
TWIN CITIES    CLOUDY    67  60  78 E7        29.94S
6HR MIN TEMP:  67; 6HR MAX TEMP:  73;

ST PAUL        CLOUDY    66  61  84 E7        29.95R
CRYSTAL        CLOUDY    67  58  72 E6        29.93R
BLAINE         CLOUDY    64  61  88 E5        29.95S
LAKEVILLE      CLOUDY    61  61 100 E3        29.95S
EDEN PRAIRIE   CLOUDY    67  61  81 E6        29.93R
6HR MIN TEMP:  67; 6HR MAX TEMP:  74;

SOUTH ST PAUL  PTCLDY    65  60  82 CALM      29.95R
LAKE ELMO      FAIR      64  59  82 E5        29.97R
$$
MNZ001>005-007-008-013>017-022>024-027-028-160700-
   Northwest Minnesota

CITY           SKY/WX    TMP DP  RH WIND       PRES   REMARKS
BEMIDJI        CLOUDY    66  60  81 SE8       29.93F
HALLOCK        LGT RAIN  64  63  94 CALM      29.91S
ROSEAU           N/A     66  61  82 CALM      29.93S
WARROAD        CLOUDY    66  63  88 CALM      29.94R
CROOKSTON      CLOUDY    68  59  73 SE3       29.91R
FOSSTON          N/A     64  57  77 SE6       29.92S
DETROIT LAKES  CLOUDY    66  57  72 SE13      29.91F
MOORHEAD       CLOUDY    66  59  77 SE3       29.89R
PARK RAPIDS    MOCLDY    67  58  72 SE8       29.93S
MAHNOMEN       CLOUDY    66  57  73 SE9       29.90S
$$
MNZ006-009>011-018-025>026-160700-
   North Central Minnesota

CITY           SKY/WX    TMP DP  RH WIND       PRES   REMARKS
BAUDETTE       CLOUDY    66  60  81 S5        29.94S
FLAG ISLAND    MOCLDY    72  61  68 CALM      29.92R
INTL FALLS     CLOUDY    66  58  75 VRB5      29.97R
6HR MIN TEMP:  66; 6HR MAX TEMP:  74;

WASKISH        MOCLDY    64  61  88 SE5       29.95S
BIG FORK       CLOUDY    61  57  88 CALM      29.98F
LONGVILLE      CLOUDY    63  61  94 CALM      29.95S
GRAND RAPIDS   PTCLDY    60  57  89 SE6       30.00F
CRANE LAKE     CLOUDY    57  54  88 CALM      30.02R
ORR            CLOUDY    57  50  77 CALM      29.98S
COOK             N/A     57  48  72 CALM      30.01F
WALKER         MOCLDY    66  60  81 SE5       29.94S
$$
MNZ012-019>021-037-160700-
   Northeast Minnesota

CITY           SKY/WX    TMP DP  RH WIND       PRES   REMARKS
DULUTH         PTCLDY    57  56  96 E7        30.02R
6HR MIN TEMP:  57; 6HR MAX TEMP:  66;

ELY            CLOUDY    50  48  93 CALM      30.03S
HIBBING        CLOUDY    52  50  93 SE3       30.01S
EVELETH        CLOUDY    53  47  81 CALM      30.03S
DULUTH HARBOR  CLOUDY    63  61  94 NE15      30.02R
GRAND MARAIS     N/A     52  50  93 N3        30.05R
$$
MNZ029>031-032-039>041-046>048-054>057-064-160700-
   West Central Minnesota

CITY           SKY/WX    TMP DP  RH WIND       PRES   REMARKS
FERGUS FALLS   CLOUDY    66  59  77 SE8       29.89S
WHEATON        CLOUDY    63  61  94 CALM      29.90R
MORRIS         CLOUDY    64  61  88 SE10      29.88S
ALEXANDRIA     CLOUDY    64  59  83 SE10      29.92F
ELBOW LAKE     FAIR      64  60  86 SE7       29.90R
WADENA         CLOUDY    63  57  82 SE7       29.92S
GLENWOOD       CLOUDY    63  61  94 E8        29.91F
APPLETON       CLOUDY    64  61  88 SE7       29.87S
BENSON         CLOUDY    66  61  82 SE5       29.91R
ORTONVILLE     CLOUDY    64  61  88 MISG      29.87R
MADISON        CLOUDY    66  66 100 SE10      29.87S
WILLMAR        MOCLDY    64  63  94 SE10      29.92S
$$
MNZ033>034-036-042>043-049>051-058-059-160700-
   Central Minnesota

CITY           SKY/WX    TMP DP  RH WIND       PRES   REMARKS
ST CLOUD       CLOUDY    63  59  87 E6        29.94S
6HR MIN TEMP:  62; 6HR MAX TEMP:  72;

SAUK CENTRE    FAIR      62  58  87 E7        29.92F
PAYNESVILLE    CLOUDY    63  60  89 SE8       29.93F
AITKIN         PTCLDY    61  59  94 E6        29.95F
PINE RIVER     CLOUDY    63  57  82 SE6       29.98R
BRAINERD       PTCLDY    64  57  78 SE7       29.95S
STAPLES        MOCLDY    63  55  77 CALM      29.94S
LONG PRAIRIE   FAIR      61  57  88 E7        29.93F
LITTLE FALLS   CLOUDY    63  55  77 E5        29.94F
LITCHFIELD     CLOUDY    64  63  94 E7        29.94R
BUFFALO        CLOUDY    63  58  85 E5        29.95S
MAPLE LAKE     CLOUDY    66  62  88 CALM      29.95S
HUTCHINSON     LGT RAIN  64  62  94 SE6       29.95R
$$
MNZ037-044-045-052-053-160700-
   East Central Minnesota

CITY           SKY/WX    TMP DP  RH WIND       PRES   REMARKS
PRINCETON      MOCLDY    63  61  94 E3        29.96R
MORA           CLOUDY    59  55  88 CALM      29.99S
RUSH CITY      CLOUDY    62  58  87 CALM      29.98R
MOOSE LAKE     PTCLDY    59  57  94 CALM      29.99S
HINCKLEY       FAIR      61  61 100 E3        29.98S
CLOQUET        PTCLDY    57  55  94 E6        30.01S
MCGREGOR       PTCLDY    59  57  94 E7        29.99S
$$
MNZ071>073-080-081-089-090-097-098-160700-
   Southwest Minnesota

CITY           SKY/WX    TMP DP  RH WIND       PRES   REMARKS
MONTEVIDEO     CLOUDY    63  63 100 SE8       29.88F
GRANITE FALLS  CLOUDY    67  64  90 E10G17    29.89F
CANBY          CLOUDY    65  63  91 CALM      29.88S
MARSHALL       CLOUDY    65  63  93 SE10      29.88F
REDWOOD FALLS  CLOUDY    66  61  84 SE10      29.90S
OLIVIA         CLOUDY    63  61  94 SE10      29.90S
PIPESTONE      CLOUDY    66  63  88 SE7       29.87S
WINDOM         CLOUDY    66  63  88 SE9       29.90S
WORTHINGTON    CLOUDY    65  64  97 E5        29.90R FOG
JACKSON        CLOUDY    64  64 100 SE8G18    29.90S FOG
TRACY          CLOUDY    65  65  97 SE5       29.89S
SLAYTON        CLOUDY    64  59  85 SE12      29.90S
$$
MNZ065>067-074>077-082>085-091>093-160700-
   South Central Minnesota

CITY           SKY/WX    TMP DP  RH WIND       PRES   REMARKS
MANKATO        LGT RAIN  64  63  96 SE7       29.94S
NEW ULM        CLOUDY    64  61  88 SE10      29.91F
ST JAMES       CLOUDY    64  63  94 E8        29.91F
FAIRMONT       LGT RAIN  65  64  97 E7        29.91S
GLENCOE        CLOUDY    65  64  97 SE3       29.94R
FARIBAULT      RAIN      66  61  82 SE6       29.95R
OWATONNA       LGT RAIN  64  63  94 SE8       29.94R
WASECA         CLOUDY    63  61  94 SE5       29.95R
ALBERT LEA     MOCLDY    66  64  94 SE6       29.94S
$$
MNZ078>079-086>088-094>096-160700-
   Southeast Minnesota

CITY           SKY/WX    TMP DP  RH WIND       PRES   REMARKS
ROCHESTER      LGT RAIN  63  62  97 SE8       29.97R
6HR MIN TEMP:  62; 6HR MAX TEMP:  67; 6HR PCP:  0.01;

RED WING       MOCLDY    64  61  88 E5        29.95R
STANTON        CLOUDY    66  60  80 E6        29.93S
DODGE CENTER   PTCLDY    63  61  94 SE7       29.96S
WINONA         CLOUDY    63  61  94 SE3       29.97S
AUSTIN         MOCLDY    63  61  94 E5        29.94S
PRESTON        CLOUDY    64  60  85 SE3       29.98R
$$
ABBREVIATIONS USED IN REMARKS
   TC - TEMPERATURES IN CELSIUS
  WCI - WIND CHILL INDEX
   HX - HEAT INDEX
  VSB - VISIBILITY
$$




USA.gov is the U.S. government's official web portal to all federal, state and local government web resources and services.